Home   Weather   Korschenbroich   Past weeks

Flag for Germany Past Weather in Korschenbroich, North Rhine-Westphalia, Germany — Yesterday and Last 2 Weeks

Now
39 °F

Clear.


Feels Like: 32 °F
Forecast: 21 / 31 °F
Wind: 10 mph from Southeast

Location: Monchengladbach Airport

Current Time: Jan 21, 2017 at 2:34:58 pm

Latest Report: Jan 21, 2017 at 2:20 pm


Visibility: 10 mi

Pressure: 30.39 "Hg

Humidity: 48%

Dew Point: 21 °F

Location of KorschenbroichLocation

Past Weather in Korschenbroich — Graph

°F

Korschenbroich Temperature Yesterday

Maximum temperature yesterday: 37 °F (at 2:50 pm)
Minimum temperature yesterday: 18 °F (at 7:50 am)
Average temperature yesterday: 30 °F

High & Low Weather Summary for the Past Weeks

 TemperatureHumidityPressure
High46 °F (Jan 11, 1:50 pm)100% (Jan 7, 1:50 pm)30.72 "Hg (Jan 7, 1:50 pm)
Low18 °F (Jan 18, 8:50 am)48% (Jan 19, 3:20 pm)29.36 "Hg (Jan 12, 8:20 pm)
Average34 °F84%30.23 "Hg
* Reported Jan 6 1:20 pm — Jan 21 1:20 pm, Korschenbroich, Weather by CustomWeather, © 2017

Note: Actual official high and low records may vary slightly from our data, if they occured in-between our weather recording intervals... More about our weather records

Advertising

Korschenbroich Weather History for the Previous 24 Hours

Scroll right to see more
 ConditionsComfort  
Time TempWeatherWind HumidityBarometerVisibility
1:20 pm
Sat, Jan 21
37 °FClear.10 mph60%30.39 "Hg10 mi
12:50 pm37 °FPassing clouds.10 mph60%30.42 "HgN/A
12:20 pm36 °FClear.6 mph75%30.42 "Hg10 mi
11:50 am34 °FClear.5 mph81%30.42 "Hg10 mi
11:20 am32 °FClear.3 mph80%30.42 "Hg10 mi
10:50 am32 °FClear.3 mph80%30.42 "Hg10 mi
10:20 am32 °FClear.2 mph87%30.45 "Hg10 mi
9:50 am25 °FClear.3 mph93%30.45 "Hg10 mi
9:20 am21 °FClear.1 mph93%30.42 "Hg6 mi
8:50 am21 °FClear.1 mph93%30.42 "Hg10 mi
7:50 pm
Fri, Jan 20
28 °FClear.2 mph80%30.51 "Hg10 mi
7:20 pm28 °FClear.1 mph80%30.51 "Hg10 mi
6:50 pm28 °FClear.2 mph80%30.51 "Hg10 mi
6:20 pm30 °FClear.3 mph75%30.51 "Hg10 mi
5:50 pm32 °FClear.3 mph75%30.51 "Hg10 mi
5:20 pm32 °FClear.3 mph75%30.51 "Hg10 mi
4:50 pm34 °FClear.5 mph75%30.51 "Hg10 mi
4:20 pm36 °FClear.3 mph70%30.51 "Hg10 mi
3:50 pm36 °FClear.3 mph70%30.51 "Hg10 mi
3:20 pm36 °FClear.1 mph65%30.51 "Hg10 mi
2:50 pm37 °FClear.3 mph56%30.54 "Hg10 mi
2:20 pm36 °FClear.2 mph60%30.54 "Hg10 mi
Weather by CustomWeather, © 2017

See weather overviewHow to use our weather pages